Location: Henry Coe State Park
(37.1875°N, 121.5503°W)
Time: 05:02:27
(UTC-08:00)

Daily predictions for brighter satellites

Satellite Brightness Start Highest point End
(mag) Time Altitude Azimuth Time Altitude Azimuth Time Altitude Azimuth
CZ-3 R/B 4.4 00:49:27 10° SW 01:59:17 49° SE 02:08:10 10° E
Cosmos 1980 Rocket 4.4 03:37:44 18° SE 03:39:27 21° E 03:43:32 10° NE
CENTAUR R/B 3.2 03:42:55 72° ESE 03:42:55 72° ESE 03:50:39 10° SE
SJ 16-02 3.6 04:05:27 21° ESE 04:06:28 22° E 04:09:54 10° NE
Cosmos 1697 Rocket 3.2 04:10:38 56° NE 04:10:38 56° NE 04:15:12 10° NNE
Cosmos 2227 Rocket 4.2 04:21:15 15° SSE 04:21:15 15° SSE 04:22:12 10° SSE
Lacrosse 5 rocket 3.2 04:21:59 27° ENE 04:21:59 27° ENE 04:24:50 10° ESE
Cosmos 2297 Rocket 3.5 04:33:32 27° S 04:33:32 27° S 04:36:01 10° S
Cosmos 1869 Rocket 4.0 04:30:25 10° N 04:34:48 60° E 04:39:12 10° SSE
Cosmos 2285 Rocket 3.9 04:38:11 63° W 04:38:15 63° WSW 04:44:35 10° S
Cosmos 1707 Rocket 4.0 04:37:03 43° SSE 04:38:15 61° E 04:42:40 10° NNE
CZ-4B R/B 3.1 04:35:37 10° NNE 04:41:05 88° WNW 04:43:20 38° SSW
IDEFIX/ARIANE 42P 3.9 04:40:29 10° NNE 04:45:22 39° E 04:50:11 10° SSE
Okean O Rocket 3.1 04:45:05 10° N 04:47:10 26° N 04:47:10 26° N
Cosmos 1934 Rocket 3.9 04:44:30 10° S 04:50:51 86° W 04:57:15 10° N
Cosmos 2360 4.1 04:51:26 27° SSW 04:54:44 90° E 05:00:30 10° NNE
CZ-4B DEB 4.2 04:50:36 10° N 04:55:58 56° WNW 04:56:55 49° WSW
BREEZE-M DEB (TANK) 4.0 04:56:00 47° WSW 04:57:08 56° SW 05:11:34 10° SE
Cosmos 158 Rocket 4.1 04:53:24 10° NNW 04:58:27 71° ENE 05:03:36 10° SSE
OAO 3 Rocket 3.5 04:58:21 48° SW 04:58:50 50° SSW 05:03:38 10° ESE
Cosmos 2082 4.4 05:00:50 34° SW 05:00:50 34° SW 05:04:43 10° S
Cosmos 2123 Rocket 3.9 04:56:04 10° N 05:02:19 88° E 05:08:35 10° S
USA 116 4.1 05:03:53 10° SSE 05:08:15 89° E 05:13:13 10° NNW
Cosmos 2242 Rocket 4.5 05:05:24 10° S 05:09:49 53° E 05:14:17 10° NNE
Cosmos 1933 3.2 05:06:35 10° S 05:10:40 84° W 05:14:44 10° N
Cosmos 1862 3.2 05:08:42 19° NNW 05:11:25 61° W 05:15:21 10° S
Cosmos 2322 Rocket 3.6 05:06:17 10° S 05:11:31 40° ESE 05:16:47 10° NE
Cosmos 1821 Rocket 4.3 05:09:48 30° WSW 05:12:09 41° WNW 05:18:00 10° N
Cosmos 372 Rocket 3.8 05:10:33 12° SSW 05:15:19 74° WNW 05:20:27 10° NNE
Cosmos 1125 Rocket 3.3 05:10:38 10° SSW 05:15:49 75° WNW 05:21:02 10° NNE
Cosmos 489 Rocket 4.4 05:15:41 10° SSW 05:21:58 77° WNW 05:28:15 10° NNE
Meteor 2-10 Rocket 4.0 05:21:04 31° WSW 05:22:07 35° WNW 05:26:41 10° N
CZ-2C R/B 3.6 05:17:45 10° S 05:22:27 74° WSW 05:27:06 10° NNW
Cosmos 1980 Rocket 2.4 05:19:36 22° SW 05:23:01 49° WNW 05:28:31 10° N
BREEZE-M R/B 4.5 05:16:45 10° SW 05:23:41 68° SE 05:29:50 10° NE
IRS-1C Rocket 4.5 05:23:10 10° N 05:28:05 41° WNW 05:32:58 10° SW
COSMOS 2455 3.1 05:23:58 10° NNW 05:30:01 72° ENE 05:36:01 10° SE
Cosmos 1441 Rocket 3.2 05:27:53 10° S 05:31:52 87° E 05:35:53 10° N
CENTAUR R/B 4.1 05:30:13 21° W 05:32:16 23° WSW 05:38:33 10° SSW
Hubble Space Telescope 2.5 05:33:20 15° SW 05:35:43 23° S 05:39:02 10° ESE
DELTA 2 R/B(2) 3.1 05:36:45 63° WNW 05:36:57 76° NNW 05:39:13 10° ENE
ATLAS 5 CENTAUR R/B 1.6 05:34:10 10° SSW 05:38:36 89° WNW 05:43:27 10° NNE
CZ-3 R/B 2.9 05:29:37 18° W 05:41:52 46° SSW 05:47:18 10° SE
SEDSat Delta rocket 3.9 05:39:55 18° WSW 05:42:58 40° S 05:47:00 10° ESE
Cosmos 1862 Rocket 3.4 05:39:53 10° SSW 05:44:12 74° W 05:48:35 10° N
Okean-O 2.6 05:39:58 10° N 05:44:22 62° WNW 05:48:44 10° SSW
MTI 3.6 05:41:26 10° S 05:44:37 79° W 05:47:48 10° NNW
SJ 16-02 2.2 05:42:33 18° WSW 05:44:52 28° WNW 05:48:42 10° N
Cosmos 1733 Rocket 2.9 05:41:28 10° N 05:45:51 77° W 05:50:14 10° S
Geosat 4.4 05:42:02 10° SE 05:47:01 68° ENE 05:52:01 10° NNW
COSMO-SKYMED 1 2.8 05:46:49 10° S 05:50:58 47° W 05:55:11 10° NNW
Cosmos 1697 Rocket 4.2 05:52:25 14° WNW 05:54:07 16° NW 05:57:34 10° NNW
Feng Yun 1-1 Rocket 4.4 05:49:56 10° N 05:55:17 50° WNW 06:00:45 10° SW
SL-16 R/B 2.2 05:50:44 10° SSW 05:56:23 80° WNW 06:02:05 10° NNE
Meteor 1-26 Rocket 4.3 05:51:24 10° SSW 05:57:13 61° W 06:03:01 10° N
Cosmos 1605 Rocket 4.5 05:52:03 10° SW 05:57:37 36° WNW 06:03:10 10° NNW
Cosmos 1900 4.4 05:53:27 10° SSW 05:58:34 82° WNW 06:03:40 10° NNE
Cosmos 1269 Rocket 4.0 05:54:21 10° NNW 05:59:33 62° WSW 06:04:44 10° S
Cosmos 405 3.5 05:56:31 10° NNW 05:59:50 37° W 06:03:08 10° SSW
Lacrosse 5 rocket 2.2 05:57:42 14° WNW 06:00:27 29° SW 06:04:03 10° S
Cosmos 2100 Rocket 4.0 05:55:53 10° S 06:02:03 84° W 06:08:14 10° N
Cosmos 1437 Rocket 4.2 05:59:49 10° N 06:03:43 44° ENE 06:07:31 10° SSE
COSMOS 2441 4.4 05:59:04 10° N 06:03:54 62° WNW 06:08:44 10° SSW
Cosmos 494 Rocket 4.4 05:58:50 10° NNW 06:03:57 67° ENE 06:09:01 10° SSE
Okean 1-7 4.4 06:01:47 10° SSE 06:05:52 45° E 06:10:01 10° NNE
CZ-2C R/B 2.8 06:02:47 10° N 06:07:39 47° WNW 06:12:34 10° SW
Cosmos 1606 2.6 06:05:15 10° S 06:09:04 77° W 06:12:53 10° N
Ariane Rocket 4.3 06:12:55 10° NNE 06:17:50 47° E 06:22:41 10° S
BREEZE-M DEB (TANK) 3.0 06:16:38 10° W 06:18:40 19° SW 06:20:21 10° S
Meteor 1-14 Rocket 4.5 06:15:34 10° NNW 06:21:24 57° W 06:27:08 10° S
Cosmos 1484 Rocket 2.8 06:19:56 10° N 06:23:54 68° WNW 06:27:53 10° SSW
Meteor 1-20 Rocket 4.3 06:18:49 10° NNW 06:24:34 64° W 06:30:14 10° S
IDEFIX/ARIANE 42P 3.6 06:20:39 10° NNW 06:24:42 23° WNW 06:28:43 10° WSW
Cosmos 405 Rocket 4.1 06:22:00 10° WSW 06:24:55 19° WNW 06:27:48 10° NNW
Meteor 1-4 Rocket 4.4 06:21:56 10° N 06:25:27 37° ENE 06:28:58 10° SSE
Cosmos 2061 Rocket 4.0 06:20:54 10° SSW 06:27:03 68° W 06:33:14 10° N
